User: anonymous   Login
Location: Home
(42.5358°N, 72.7383°W)
Time: 02:09:44
(UTC-04:00)
Language:

JY1SAT - Orbit

View from above orbital plane
View from above orbital plane
View from above satellite
View from above satellite

Ground track
Ground track

The orbit data is extracted from the following two-line orbital elements,

1 43803U 18099AX  22176.42129531  .00001503  00000-0  13503-3 0  9994
2 43803  97.6203 243.2452 0013183 237.2290 122.7662 14.97120954194260
Epoch (UTC): 25 June 2022 10:06:39
Eccentricity: 0.0013183
inclination: 97.6203°
perigee height: 566 km
apogee height: 585 km
right ascension of ascending node: 243.2452°
argument of perigee: 237.2290°
revolutions per day: 14.97120954
mean anomaly at epoch: 122.7662°
orbit number at epoch: 19426

The dashed part of the orbit path shows where the satellite is in the earth's shadow,  

DLR